GW4053 Weather Reports


time (UTC)temp
C
wind
direction
speed
KPH
gust
KPH
rain 1hr
cm
rain 24hr
cm
rain mn
cm
humidity
%
barometer
mb
20260508004222 16 283 3.2 6.4 0.00 0.00 0.00 66 1014.4
20260508003222 16 283 3.2 6.4 0.00 0.00 0.00 66 1014.4
20260508002122 17 270 3.2 6.4 0.00 0.00 0.00 66 1014.4
20260508001122 17 270 3.2 6.4 0.00 0.00 0.00 65 1014.5
20260508000123 17 270 3.2 9.7 0.00 0.00 0.00 65 1014.6
20260507235122 17 270 3.2 6.4 0.00 0.00 0.00 65 1014.8
20260507234122 17 270 3.2 8.0 0.00 0.00 0.00 64 1014.9
20260507233122 17 270 3.2 6.4 0.00 0.00 0.00 64 1014.9
20260507232122 17 270 3.2 6.4 0.00 0.00 0.00 64 1014.9
20260507231122 17 287 3.2 6.4 0.00 0.00 0.00 64 1015.1
20260507230122 17 270 3.2 6.4 0.00 0.00 0.00 64 1015.3
20260507225122 17 270 3.2 6.4 0.00 0.00 0.00 64 1015.3
20260507224122 17 270 3.2 6.4 0.00 0.00 0.00 64 1015.6
20260507223022 17 297 3.2 6.4 0.00 0.00 0.00 64 1015.4
20260507222022 17 297 3.2 6.4 0.00 0.00 0.00 64 1015.6
20260507221022 17 289 3.2 6.4 0.00 0.00 0.00 63 1015.6
20260507215022 17 287 3.2 6.4 0.00 0.03 0.00 63 1015.4
20260507214022 17 270 3.2 6.4 0.00 0.03 0.00 63 1015.4
20260507213022 17 270 3.2 4.8 0.00 0.03 0.00 63 1015.4
20260507212021 18 270 3.2 6.4 0.00 0.03 0.00 63 1015.6
20260507211022 18 270 3.2 8.0 0.00 0.03 0.00 63 1015.4
20260507210021 18 255 3.2 6.4 0.00 0.03 0.00 63 1015.4
20260507204922 18 270 3.2 6.4 0.00 0.03 0.00 63 1015.4
20260507203922 18 304 3.2 6.4 0.00 0.03 0.00 62 1015.4
20260507202922 18 312 3.2 6.4 0.00 0.03 0.00 62 1015.3
20260507201922 18 305 3.2 6.4 0.00 0.03 0.00 62 1015.4
20260507200922 18 312 3.2 4.8 0.00 0.03 0.00 62 1015.2
20260507195923 18 315 3.2 6.4 0.00 0.03 0.00 62 1015.2
20260507194922 18 308 3.2 6.4 0.00 0.03 0.00 62 1015.3
20260507193922 18 330 3.2 6.4 0.00 0.03 0.00 62 1015.2
20260507192922 18 344 3.2 6.4 0.00 0.03 0.00 61 1015.0
20260507191922 18 318 3.2 8.0 0.00 0.03 0.00 61 1014.9
20260507190922 18 346 3.2 8.0 0.00 0.03 0.00 61 1014.8
20260507185922 18 283 3.2 6.4 0.00 0.03 0.00 61 1014.7
20260507184923 19 288 3.2 8.0 0.00 0.03 0.00 60 1014.6
20260507183822 19 204 3.2 9.7 0.00 0.03 0.00 59 1014.8
20260507182822 20 321 3.2 6.4 0.00 0.03 0.00 59 1014.7
20260507181823 20 311 1.6 6.4 0.00 0.03 0.00 58 1014.7
20260507180822 20 308 3.2 6.4 0.00 0.03 0.00 58 1014.5
20260507175823 20 349 3.2 8.0 0.00 0.03 0.00 57 1014.3
20260507174822 21 1 3.2 9.7 0.00 0.03 0.00 55 1014.0
20260507173822 21 45 3.2 12.9 0.00 0.03 0.00 54 1013.9
20260507172822 22 8 3.2 9.7 0.00 0.03 0.00 53 1013.9
20260507171822 22 38 3.2 8.0 0.00 0.03 0.00 52 1013.8
20260507170822 22 49 3.2 11.3 0.00 0.03 0.00 52 1013.5
20260507165822 23 29 3.2 6.4 0.00 0.03 0.00 51 1013.4
20260507164722 23 30 3.2 8.0 0.00 0.03 0.00 51 1013.5
20260507163722 23 45 3.2 9.7 0.00 0.03 0.00 50 1013.4
20260507162723 24 55 3.2 8.0 0.00 0.03 0.00 49 1013.4
20260507161722 24 38 3.2 9.7 0.00 0.03 0.00 49 1013.2
20260507160722 24 63 3.2 8.0 0.00 0.03 0.00 50 1013.1
20260507155722 23 59 3.2 9.7 0.00 0.03 0.00 51 1013.1
20260507154722 23 48 3.2 9.7 0.00 0.03 0.00 52 1013.1
20260507153722 23 55 3.2 11.3 0.00 0.03 0.00 51 1013.0
20260507152722 23 48 3.2 9.7 0.00 0.03 0.00 49 1012.6
20260507151724 24 1 3.2 14.5 0.00 0.03 0.00 49 1013.0
20260507150722 25 19 3.2 11.3 0.00 0.03 0.00 48 1012.9
20260507145722 24 286 6.4 14.5 0.00 0.03 0.00 38 1012.9
20260507144622 23 289 6.4 22.5 0.00 0.03 0.00 40 1012.8
20260507143621 23 286 6.4 22.5 0.00 0.03 0.00 38 1013.0
20260507143522 23 303 6.4 11.3 0.00 0.03 0.00 37 1013.1
20260507142522 23 270 6.4 16.1 0.00 0.03 0.00 38 1013.1
20260507141522 23 270 9.7 19.3 0.00 0.03 0.00 38 1013.3
20260507140122 22 255 9.7 19.3 0.00 0.03 0.00 36 1013.2
20260507135122 22 270 9.7 22.5 0.00 0.03 0.00 38 1013.3
20260507134122 22 300 9.7 19.3 0.00 0.03 0.00 37 1013.2
20260507133123 22 290 8.0 14.5 0.00 0.03 0.00 39 1013.4
20260507132122 22 302 9.7 19.3 0.00 0.03 0.00 38 1013.6
20260507131122 22 310 9.7 20.9 0.00 0.03 0.00 37 1013.7
20260507130022 22 274 8.0 16.1 0.00 0.03 0.00 39 1013.8
20260507125022 22 292 6.4 19.3 0.00 0.03 0.00 38 1013.8
20260507124022 21 251 11.3 22.5 0.00 0.03 0.00 41 1013.9
20260507123022 21 275 6.4 19.3 0.00 0.03 0.00 41 1014.0
20260507122021 21 254 6.4 16.1 0.00 0.03 0.00 49 1014.0
20260507121022 21 24 4.8 14.5 0.00 0.03 0.00 48 1014.0
20260507120023 21 315 3.2 9.7 0.00 0.03 0.00 51 1013.9
20260507115022 21 12 3.2 9.7 0.00 0.03 0.00 52 1014.2
20260507114022 20 346 3.2 11.3 0.00 0.03 0.00 56 1014.4
20260507113023 20 304 3.2 11.3 0.00 0.03 0.00 56 1014.3
20260507112022 20 18 3.2 8.0 0.00 0.03 0.00 57 1014.0
20260507110922 20 10 3.2 14.5 0.00 0.03 0.00 56 1014.3
20260507105922 20 347 3.2 6.4 0.00 0.03 0.00 58 1014.5
20260507104922 20 1 3.2 9.7 0.00 0.03 0.00 57 1014.5
20260507103922 19 15 3.2 9.7 0.00 0.03 0.00 58 1014.6
20260507102922 19 3 3.2 9.7 0.00 0.03 0.00 59 1014.6
20260507101923 19 16 3.2 12.9 0.00 0.03 0.00 60 1014.7
20260507100922 18 7 3.2 9.7 0.00 0.03 0.00 61 1015.0
20260507095922 18 346 3.2 9.7 0.00 0.03 0.00 60 1014.9
20260507094922 18 296 3.2 6.4 0.00 0.03 0.00 59 1014.8
20260507093922 18 332 3.2 9.7 0.00 0.03 0.00 56 1014.9
20260507092823 17 303 4.8 9.7 0.00 0.03 0.00 58 1014.8
20260507091823 17 350 3.2 9.7 0.00 0.03 0.00 62 1014.8
20260507090822 17 28 3.2 9.7 0.00 0.03 0.00 62 1015.0
20260507085822 17 330 4.8 9.7 0.00 0.03 0.00 64 1015.2
20260507084822 17 2 3.2 8.0 0.00 0.03 0.00 66 1015.2
20260507083822 16 14 3.2 8.0 0.00 0.03 0.00 66 1015.3
20260507082822 16 323 3.2 6.4 0.00 0.03 0.00 68 1015.6
20260507081822 16 1 3.2 8.0 0.00 0.03 0.00 69 1015.4
20260507080823 16 341 3.2 6.4 0.00 0.03 0.00 70 1015.3
20260507075822 15 15 3.2 9.7 0.00 0.03 0.00 72 1015.7
20260507074823 15 358 3.2 9.7 0.00 0.03 0.00 72 1015.6
20260507073722 15 11 3.2 8.0 0.00 0.03 0.00 74 1015.6
20260507072722 15 20 3.2 8.0 0.00 0.03 0.00 74 1015.7
20260507071722 15 356 3.2 6.4 0.00 0.03 0.00 74 1015.4
20260507070722 15 1 3.2 6.4 0.00 0.03 0.00 76 1015.6
20260507065722 15 332 3.2 9.7 0.00 0.03 0.00 76 1015.6
20260507064722 14 323 3.2 6.4 0.00 0.03 0.00 76 1015.7
20260507063722 14 315 1.6 6.4 0.00 0.03 0.00 77 1015.6
20260507062722 14 290 3.2 6.4 0.00 0.03 0.00 77 1015.7
20260507061722 14 286 3.2 6.4 0.00 0.03 0.00 76 1015.3
20260507060722 14 282 3.2 6.4 0.00 0.03 0.00 77 1015.4
20260507055722 14 270 3.2 6.4 0.00 0.03 0.00 77 1015.2
20260507054622 14 270 3.2 6.4 0.00 0.03 0.00 77 1015.3
20260507053921 14 261 3.2 8.0 0.00 0.03 0.00 77 1015.3
20260507052621 13 270 3.2 6.4 0.00 0.03 0.00 77 1015.2
20260507051623 13 270 3.2 6.4 0.00 0.03 0.00 77 1015.1
20260507050621 13 270 3.2 6.4 0.00 0.03 0.00 76 1015.1
20260507045622 13 284 4.8 9.7 0.00 0.03 0.00 76 1015.0
20260507044622 13 278 4.8 8.0 0.00 0.03 0.00 76 1014.9
20260507043621 13 278 3.2 9.7 0.00 0.03 0.00 76 1014.7
20260507042621 13 279 4.8 9.7 0.00 0.03 0.00 76 1014.8
20260507041622 13 270 3.2 6.4 0.00 0.03 0.00 76 1014.8
20260507040621 13 270 3.2 8.0 0.00 0.03 0.00 76 1014.7
20260507035522 14 260 3.2 6.4 0.03 0.03 0.00 76 1014.6
20260507034522 14 270 3.2 6.4 0.03 0.03 0.00 75 1014.6
20260507033522 14 270 3.2 6.4 0.03 0.03 0.00 76 1014.7
20260507032522 14 270 3.2 6.4 0.03 0.03 0.00 75 1014.8
20260507031522 14 270 3.2 8.0 0.03 0.03 0.00 74 1014.6
20260507030522 14 280 4.8 9.7 0.03 0.03 0.00 74 1014.6
20260507025521 14 286 3.2 8.0 0.00 0.00 0.00 73 1014.7
20260507024522 14 270 3.2 6.4 0.00 0.00 0.00 73 1014.4
20260507023522 14 289 3.2 6.4 0.00 0.00 0.00 73 1014.3
20260507022522 14 270 3.2 6.4 0.00 0.00 0.00 74 1014.3
20260507021521 14 270 3.2 6.4 0.00 0.00 0.00 74 1014.2
20260507020522 14 270 3.2 8.0 0.00 0.00 0.00 74 1014.2
20260507015421 14 281 3.2 6.4 0.00 0.00 0.00 74 1014.0
20260507014421 14 293 4.8 9.7 0.00 0.00 0.00 74 1013.9
20260507013422 14 298 6.4 11.3 0.00 0.00 0.00 74 1014.0
20260507012421 14 299 6.4 9.7 0.00 0.00 0.00 74 1013.9
20260507011422 14 291 4.8 9.7 0.00 0.00 0.00 74 1013.9
20260507010421 14 291 4.8 9.7 0.00 0.00 0.00 74 1013.8
20260507005422 14 288 3.2 6.4 0.00 0.00 0.00 73 1013.9